Time,TemperatureF,DewpointF,PressureIn,WindDirection,WindDirectionDegrees,WindSpeedMPH,WindSpeedGustMPH,Humidity,HourlyPrecipIn,Conditions,Clouds,dailyrainin,SoftwareType,DateUTC
2013-03-29 00:03:00,35.0,30.0,30.33,SSW,211,0.0,0.0,82,0.00,,,0.00,,2013-03-29 05:03:00,
2013-03-29 00:12:00,35.0,30.0,30.33,SSW,211,0.0,0.0,82,0.00,,,0.00,,2013-03-29 05:12:00,
2013-03-29 00:23:00,34.0,29.0,30.33,SSW,211,0.0,1.0,83,0.00,,,0.00,,2013-03-29 05:23:00,
2013-03-29 00:33:00,34.0,29.0,30.33,SSW,211,0.0,0.0,83,0.00,,,0.00,,2013-03-29 05:33:00,
2013-03-29 00:43:00,34.0,29.0,30.33,SSW,211,0.0,0.0,83,0.00,,,0.00,,2013-03-29 05:43:00,
2013-03-29 00:52:00,33.0,29.0,30.33,SSW,211,0.0,2.0,85,0.00,,,0.00,,2013-03-29 05:52:00,
2013-03-29 01:02:00,33.0,29.0,30.33,SSW,211,0.0,0.0,86,0.00,,,0.00,,2013-03-29 06:02:00,
2013-03-29 01:12:00,33.0,29.0,30.33,SSW,211,0.0,0.0,86,0.00,,,0.00,,2013-03-29 06:12:00,
2013-03-29 01:23:00,33.0,30.0,30.33,SSW,211,0.0,0.0,87,0.00,,,0.00,,2013-03-29 06:23:00,
2013-03-29 01:32:00,33.0,30.0,30.33,SSW,211,0.0,0.0,88,0.00,,,0.00,,2013-03-29 06:32:00,
2013-03-29 01:42:00,33.0,30.0,30.33,SSW,211,0.0,0.0,88,0.00,,,0.00,,2013-03-29 06:42:00,
2013-03-29 01:52:00,33.0,30.0,30.32,SSW,211,1.0,2.0,89,0.00,,,0.00,,2013-03-29 06:52:00,
2013-03-29 02:03:00,33.0,30.0,30.32,SSW,211,0.0,2.0,88,0.00,,,0.00,,2013-03-29 07:03:00,
2013-03-29 02:12:00,33.0,30.0,30.32,SSW,211,0.0,2.0,88,0.00,,,0.00,,2013-03-29 07:12:00,
2013-03-29 02:22:00,33.0,30.0,30.32,SSW,211,0.0,1.0,88,0.00,,,0.00,,2013-03-29 07:22:00,
2013-03-29 02:32:00,33.0,30.0,30.31,SSW,211,0.0,1.0,89,0.00,,,0.00,,2013-03-29 07:32:00,
2013-03-29 02:42:00,33.0,30.0,30.31,SSW,211,0.0,1.0,89,0.00,,,0.00,,2013-03-29 07:42:00,
2013-03-29 02:52:00,32.0,29.0,30.32,SSW,211,0.0,0.0,89,0.00,,,0.00,,2013-03-29 07:52:00,
2013-03-29 03:02:00,32.0,29.0,30.32,SSW,211,1.0,2.0,90,0.00,,,0.00,,2013-03-29 08:02:00,
2013-03-29 03:12:00,32.0,29.0,30.32,SSW,211,1.0,2.0,90,0.00,,,0.00,,2013-03-29 08:12:00,
2013-03-29 03:22:00,32.0,29.0,30.32,SSW,211,0.0,0.0,90,0.00,,,0.00,,2013-03-29 08:22:00,
2013-03-29 03:32:00,33.0,31.0,30.31,SSW,211,0.0,0.0,91,0.00,,,0.00,,2013-03-29 08:32:00,
2013-03-29 03:42:00,33.0,31.0,30.31,SSW,211,0.0,0.0,91,0.00,,,0.00,,2013-03-29 08:42:00,
2013-03-29 03:52:00,33.0,30.0,30.31,SSW,211,0.0,1.0,90,0.00,,,0.00,,2013-03-29 08:52:00,
2013-03-29 04:02:00,33.0,30.0,30.31,SSW,211,0.0,1.0,90,0.00,,,0.00,,2013-03-29 09:02:00,
2013-03-29 04:13:00,33.0,30.0,30.31,SSW,211,0.0,1.0,90,0.00,,,0.00,,2013-03-29 09:13:00,
2013-03-29 04:22:00,34.0,31.0,30.30,SSW,211,0.0,1.0,89,0.00,,,0.00,,2013-03-29 09:22:00,
2013-03-29 04:33:00,34.0,31.0,30.30,SSW,211,0.0,2.0,88,0.00,,,0.00,,2013-03-29 09:33:00,
2013-03-29 04:42:00,34.0,31.0,30.30,SSW,211,0.0,2.0,88,0.00,,,0.00,,2013-03-29 09:42:00,
2013-03-29 04:52:00,34.0,31.0,30.30,SSW,211,0.0,1.0,89,0.00,,,0.00,,2013-03-29 09:52:00,
2013-03-29 05:03:00,34.0,31.0,30.29,SSW,211,0.0,0.0,88,0.00,,,0.00,,2013-03-29 10:03:00,
2013-03-29 05:12:00,34.0,31.0,30.29,SSW,211,0.0,0.0,88,0.00,,,0.00,,2013-03-29 10:12:00,
2013-03-29 05:22:00,34.0,31.0,30.29,SSW,211,0.0,0.0,89,0.00,,,0.00,,2013-03-29 10:22:00,
2013-03-29 05:33:00,34.0,31.0,30.29,SSW,211,0.0,1.0,88,0.00,,,0.00,,2013-03-29 10:33:00,
2013-03-29 05:42:00,34.0,31.0,30.29,SSW,211,0.0,1.0,88,0.00,,,0.00,,2013-03-29 10:42:00,
2013-03-29 05:52:00,34.0,31.0,30.29,SSW,211,0.0,0.0,88,0.00,,,0.00,,2013-03-29 10:52:00,
2013-03-29 06:03:00,34.0,31.0,30.29,SSW,211,0.0,0.0,89,0.00,,,0.00,,2013-03-29 11:03:00,
2013-03-29 06:12:00,34.0,31.0,30.29,SSW,211,0.0,0.0,89,0.00,,,0.00,,2013-03-29 11:12:00,
2013-03-29 06:23:00,34.0,31.0,30.29,SSW,211,0.0,0.0,89,0.00,,,0.00,,2013-03-29 11:23:00,
2013-03-29 06:32:00,34.0,31.0,30.30,SSW,211,0.0,1.0,89,0.00,,,0.00,,2013-03-29 11:32:00,
2013-03-29 06:42:00,34.0,31.0,30.30,SSW,211,0.0,1.0,89,0.00,,,0.00,,2013-03-29 11:42:00,
2013-03-29 06:52:00,33.0,30.0,30.30,SSW,211,0.0,1.0,90,0.00,,,0.00,,2013-03-29 11:52:00,
2013-03-29 07:03:00,33.0,30.0,30.30,SSW,211,0.0,0.0,90,0.00,,,0.00,,2013-03-29 12:03:00,
2013-03-29 07:12:00,33.0,30.0,30.30,SSW,211,0.0,0.0,90,0.00,,,0.00,,2013-03-29 12:12:00,
2013-03-29 07:22:00,33.0,31.0,30.31,SSW,211,0.0,0.0,91,0.00,,,0.00,,2013-03-29 12:22:00,
2013-03-29 07:32:00,32.0,30.0,30.31,SSW,211,0.0,0.0,91,0.00,,,0.00,,2013-03-29 12:32:00,
2013-03-29 07:42:00,32.0,30.0,30.31,SSW,211,0.0,0.0,91,0.00,,,0.00,,2013-03-29 12:42:00,
2013-03-29 07:52:00,33.0,31.0,30.32,SSW,211,0.0,2.0,92,0.00,,,0.00,,2013-03-29 12:52:00,
2013-03-29 08:03:00,34.0,32.0,30.32,SSW,211,0.0,3.0,91,0.00,,,0.00,,2013-03-29 13:03:00,
2013-03-29 08:12:00,34.0,32.0,30.32,SSW,211,0.0,3.0,91,0.00,,,0.00,,2013-03-29 13:12:00,
2013-03-29 08:22:00,34.0,31.0,30.32,SSW,211,0.0,0.0,90,0.00,,,0.00,,2013-03-29 13:22:00,
2013-03-29 08:32:00,36.0,33.0,30.33,SSW,211,2.0,3.0,88,0.00,,,0.00,,2013-03-29 13:32:00,
2013-03-29 08:42:00,36.0,33.0,30.33,SSW,211,2.0,3.0,88,0.00,,,0.00,,2013-03-29 13:42:00,
2013-03-29 08:52:00,36.0,32.0,30.33,SSW,211,0.0,2.0,85,0.00,,,0.00,,2013-03-29 13:52:00,
2013-03-29 09:03:00,36.0,32.0,30.33,SSW,211,0.0,2.0,85,0.00,,,0.00,,2013-03-29 14:03:00,
2013-03-29 09:12:00,36.0,32.0,30.33,SSW,211,0.0,2.0,85,0.00,,,0.00,,2013-03-29 14:12:00,
2013-03-29 09:22:00,38.0,33.0,30.33,SSW,211,1.0,3.0,82,0.00,,,0.00,,2013-03-29 14:22:00,
2013-03-29 09:32:00,39.0,34.0,30.34,South,189,1.0,5.0,81,0.00,,,0.00,,2013-03-29 14:32:00,
2013-03-29 09:42:00,39.0,34.0,30.34,South,189,1.0,5.0,81,0.00,,,0.00,,2013-03-29 14:42:00,
2013-03-29 09:52:00,41.0,35.0,30.34,South,177,0.0,2.0,80,0.00,,,0.00,,2013-03-29 14:52:00,
2013-03-29 10:02:00,42.0,35.0,30.33,SSE,153,0.0,3.0,75,0.00,,,0.00,,2013-03-29 15:02:00,
2013-03-29 10:12:00,42.0,35.0,30.33,SSE,153,0.0,3.0,75,0.00,,,0.00,,2013-03-29 15:12:00,
2013-03-29 10:22:00,44.0,36.0,30.33,SSE,150,0.0,3.0,73,0.00,,,0.00,,2013-03-29 15:22:00,
2013-03-29 10:33:00,45.0,35.0,30.33,SE,140,2.0,4.0,69,0.00,,,0.00,,2013-03-29 15:33:00,
2013-03-29 10:43:00,45.0,35.0,30.33,SE,140,2.0,4.0,69,0.00,,,0.00,,2013-03-29 15:43:00,
2013-03-29 10:52:00,46.0,36.0,30.33,SE,142,2.0,5.0,68,0.00,,,0.00,,2013-03-29 15:52:00,
2013-03-29 11:03:00,47.0,37.0,30.33,SSE,150,2.0,5.0,69,0.00,,,0.00,,2013-03-29 16:03:00,
2013-03-29 11:13:00,47.0,37.0,30.33,SSE,150,2.0,5.0,69,0.00,,,0.00,,2013-03-29 16:13:00,
2013-03-29 11:23:00,48.0,37.0,30.33,SSE,150,2.0,5.0,66,0.00,,,0.00,,2013-03-29 16:23:00,
2013-03-29 11:32:00,48.0,37.0,30.32,SE,144,2.0,4.0,65,0.00,,,0.00,,2013-03-29 16:32:00,
2013-03-29 11:42:00,48.0,37.0,30.32,SE,144,2.0,4.0,65,0.00,,,0.00,,2013-03-29 16:42:00,
2013-03-29 11:52:00,49.0,34.0,30.32,ESE,123,1.0,4.0,57,0.00,,,0.00,,2013-03-29 16:52:00,
2013-03-29 12:03:00,50.0,34.0,30.32,NNE,15,0.0,4.0,54,0.00,,,0.00,,2013-03-29 17:03:00,
2013-03-29 12:12:00,50.0,34.0,30.32,NNE,15,0.0,4.0,54,0.00,,,0.00,,2013-03-29 17:12:00,
2013-03-29 12:22:00,51.0,34.0,30.32,NE,56,1.0,3.0,52,0.00,,,0.00,,2013-03-29 17:22:00,
2013-03-29 12:33:00,51.0,34.0,30.31,SE,132,1.0,3.0,52,0.00,,,0.00,,2013-03-29 17:33:00,
2013-03-29 12:42:00,51.0,34.0,30.31,SE,132,1.0,3.0,52,0.00,,,0.00,,2013-03-29 17:42:00,
2013-03-29 12:52:00,52.0,35.0,30.30,SSW,197,3.0,5.0,52,0.00,,,0.00,,2013-03-29 17:52:00,
2013-03-29 13:02:00,52.0,35.0,30.30,SSW,200,1.0,8.0,52,0.00,,,0.00,,2013-03-29 18:02:00,
2013-03-29 13:12:00,52.0,35.0,30.30,SSW,200,1.0,8.0,52,0.00,,,0.00,,2013-03-29 18:12:00,
2013-03-29 13:22:00,51.0,35.0,30.30,SSE,168,3.0,6.0,55,0.00,,,0.00,,2013-03-29 18:22:00,
2013-03-29 13:32:00,51.0,36.0,30.29,SSW,200,1.0,5.0,56,0.00,,,0.00,,2013-03-29 18:32:00,
2013-03-29 13:42:00,51.0,36.0,30.29,SSW,200,1.0,5.0,56,0.00,,,0.00,,2013-03-29 18:42:00,
2013-03-29 13:52:00,52.0,35.0,30.29,NNW,348,2.0,5.0,52,0.00,,,0.00,,2013-03-29 18:52:00,
2013-03-29 14:02:00,52.0,35.0,30.29,WSW,242,0.0,4.0,52,0.00,,,0.00,,2013-03-29 19:02:00,
2013-03-29 14:12:00,52.0,35.0,30.28,SSW,205,1.0,5.0,52,0.00,,,0.00,,2013-03-29 19:12:00,
2013-03-29 14:23:00,52.0,35.0,30.28,SSW,205,1.0,5.0,52,0.00,,,0.00,,2013-03-29 19:23:00,
2013-03-29 14:32:00,52.0,35.0,30.27,SSW,206,0.0,7.0,53,0.00,,,0.00,,2013-03-29 19:32:00,
2013-03-29 14:42:00,52.0,35.0,30.27,SSW,206,0.0,7.0,53,0.00,,,0.00,,2013-03-29 19:42:00,
2013-03-29 14:52:00,53.0,35.0,30.27,North,360,1.0,4.0,50,0.00,,,0.00,,2013-03-29 19:52:00,
2013-03-29 15:02:00,53.0,34.0,30.26,NW,315,2.0,4.0,49,0.00,,,0.00,,2013-03-29 20:02:00,
2013-03-29 15:12:00,53.0,34.0,30.26,NW,315,2.0,4.0,49,0.00,,,0.00,,2013-03-29 20:12:00,
2013-03-29 15:22:00,53.0,34.0,30.26,NW,315,2.0,4.0,49,0.00,,,0.00,,2013-03-29 20:22:00,
2013-03-29 15:33:00,53.0,34.0,30.26,NNW,331,1.0,6.0,48,0.00,,,0.00,,2013-03-29 20:33:00,
2013-03-29 15:42:00,53.0,34.0,30.26,NNW,331,1.0,6.0,48,0.00,,,0.00,,2013-03-29 20:42:00,
2013-03-29 15:52:00,53.0,36.0,30.25,North,355,3.0,7.0,53,0.00,,,0.00,,2013-03-29 20:52:00,
2013-03-29 16:02:00,53.0,34.0,30.24,NW,321,1.0,6.0,49,0.00,,,0.00,,2013-03-29 21:02:00,
2013-03-29 16:12:00,53.0,34.0,30.24,NW,321,1.0,6.0,49,0.00,,,0.00,,2013-03-29 21:12:00,
2013-03-29 16:22:00,52.0,33.0,30.24,NNW,347,1.0,4.0,48,0.00,,,0.00,,2013-03-29 21:22:00,
2013-03-29 16:33:00,52.0,34.0,30.24,NNW,327,0.0,3.0,50,0.00,,,0.00,,2013-03-29 21:33:00,
2013-03-29 16:42:00,52.0,34.0,30.24,NNW,327,0.0,3.0,50,0.00,,,0.00,,2013-03-29 21:42:00,
2013-03-29 16:53:00,53.0,36.0,30.24,West,281,2.0,3.0,52,0.00,,,0.00,,2013-03-29 21:53:00,
2013-03-29 17:03:00,53.0,36.0,30.23,SSW,207,2.0,5.0,52,0.00,,,0.00,,2013-03-29 22:03:00,
2013-03-29 17:12:00,53.0,36.0,30.23,SSW,207,2.0,5.0,52,0.00,,,0.00,,2013-03-29 22:12:00,
2013-03-29 17:22:00,54.0,34.0,30.23,South,188,0.0,2.0,47,0.00,,,0.00,,2013-03-29 22:22:00,
2013-03-29 17:33:00,55.0,35.0,30.23,NW,319,3.0,5.0,46,0.00,,,0.00,,2013-03-29 22:33:00,
2013-03-29 17:42:00,55.0,35.0,30.23,NW,319,3.0,5.0,46,0.00,,,0.00,,2013-03-29 22:42:00,
2013-03-29 17:52:00,55.0,35.0,30.22,North,5,0.0,5.0,47,0.00,,,0.00,,2013-03-29 22:52:00,
2013-03-29 18:03:00,54.0,34.0,30.23,North,349,1.0,6.0,47,0.00,,,0.00,,2013-03-29 23:03:00,
2013-03-29 18:12:00,54.0,34.0,30.23,North,349,1.0,6.0,47,0.00,,,0.00,,2013-03-29 23:12:00,
2013-03-29 18:22:00,53.0,33.0,30.23,North,355,3.0,7.0,46,0.00,,,0.00,,2013-03-29 23:22:00,
2013-03-29 18:32:00,53.0,34.0,30.23,North,350,0.0,4.0,49,0.00,,,0.00,,2013-03-29 23:32:00,
2013-03-29 18:42:00,53.0,34.0,30.23,North,350,0.0,4.0,49,0.00,,,0.00,,2013-03-29 23:42:00,
2013-03-29 18:52:00,52.0,33.0,30.23,North,355,1.0,4.0,49,0.00,,,0.00,,2013-03-29 23:52:00,
2013-03-29 19:03:00,52.0,33.0,30.23,NNW,339,2.0,4.0,48,0.00,,,0.00,,2013-03-30 00:03:00,
2013-03-29 19:12:00,52.0,33.0,30.23,NNW,339,2.0,4.0,48,0.00,,,0.00,,2013-03-30 00:12:00,
2013-03-29 19:22:00,51.0,33.0,30.23,NNW,346,0.0,2.0,49,0.00,,,0.00,,2013-03-30 00:22:00,
2013-03-29 19:32:00,49.0,34.0,30.23,NNW,346,0.0,1.0,55,0.00,,,0.00,,2013-03-30 00:32:00,
2013-03-29 19:42:00,49.0,34.0,30.23,NNW,346,0.0,1.0,55,0.00,,,0.00,,2013-03-30 00:42:00,
2013-03-29 19:52:00,49.0,33.0,30.23,NNW,346,0.0,2.0,54,0.00,,,0.00,,2013-03-30 00:52:00,
2013-03-29 20:02:00,48.0,33.0,30.23,NNW,346,0.0,0.0,56,0.00,,,0.00,,2013-03-30 01:02:00,
2013-03-29 20:12:00,48.0,33.0,30.23,NNW,346,0.0,0.0,56,0.00,,,0.00,,2013-03-30 01:12:00,
2013-03-29 20:22:00,46.0,34.0,30.23,NNW,346,0.0,0.0,62,0.00,,,0.00,,2013-03-30 01:22:00,
2013-03-29 20:32:00,45.0,34.0,30.23,NNW,346,0.0,0.0,64,0.00,,,0.00,,2013-03-30 01:32:00,
2013-03-29 20:42:00,45.0,34.0,30.23,NNW,346,0.0,0.0,64,0.00,,,0.00,,2013-03-30 01:42:00,
2013-03-29 20:52:00,44.0,35.0,30.23,NNW,346,0.0,0.0,71,0.00,,,0.00,,2013-03-30 01:52:00,
2013-03-29 21:02:00,43.0,34.0,30.24,NNW,346,0.0,0.0,71,0.00,,,0.00,,2013-03-30 02:02:00,
2013-03-29 21:12:00,43.0,34.0,30.24,NNW,346,0.0,0.0,71,0.00,,,0.00,,2013-03-30 02:12:00,
2013-03-29 21:22:00,42.0,34.0,30.24,NNW,346,0.0,0.0,72,0.00,,,0.00,,2013-03-30 02:22:00,
2013-03-29 21:32:00,42.0,34.0,30.24,North,350,0.0,1.0,73,0.00,,,0.00,,2013-03-30 02:32:00,
2013-03-29 21:42:00,42.0,34.0,30.24,North,350,0.0,1.0,73,0.00,,,0.00,,2013-03-30 02:42:00,
2013-03-29 21:52:00,41.0,34.0,30.24,North,350,0.0,0.0,77,0.00,,,0.00,,2013-03-30 02:52:00,
2013-03-29 22:02:00,40.0,34.0,30.24,North,350,0.0,1.0,78,0.00,,,0.00,,2013-03-30 03:02:00,
2013-03-29 22:12:00,39.0,32.0,30.25,NNE,15,2.0,5.0,77,0.00,,,0.00,,2013-03-30 03:12:00,
2013-03-29 22:22:00,39.0,32.0,30.25,NNE,15,2.0,5.0,77,0.00,,,0.00,,2013-03-30 03:22:00,
2013-03-29 22:33:00,42.0,34.0,30.25,North,11,0.0,3.0,72,0.00,,,0.00,,2013-03-30 03:33:00,
2013-03-29 22:43:00,42.0,34.0,30.25,North,11,0.0,3.0,72,0.00,,,0.00,,2013-03-30 03:43:00,
2013-03-29 22:53:00,41.0,33.0,30.26,NNE,12,0.0,4.0,74,0.00,,,0.00,,2013-03-30 03:53:00,
2013-03-29 23:02:00,40.0,31.0,30.25,North,5,1.0,3.0,70,0.00,,,0.00,,2013-03-30 04:02:00,
2013-03-29 23:12:00,40.0,31.0,30.25,North,5,1.0,3.0,70,0.00,,,0.00,,2013-03-30 04:12:00,
2013-03-29 23:23:00,40.0,30.0,30.25,NE,36,0.0,2.0,67,0.00,,,0.00,,2013-03-30 04:23:00,
2013-03-29 23:32:00,38.0,30.0,30.25,NE,36,0.0,1.0,72,0.00,,,0.00,,2013-03-30 04:32:00,
2013-03-29 23:42:00,38.0,30.0,30.25,NE,36,0.0,1.0,72,0.00,,,0.00,,2013-03-30 04:42:00,
2013-03-29 23:52:00,37.0,29.0,30.24,NE,36,0.0,0.0,74,0.00,,,0.00,,2013-03-30 04:52:00,